Home   Weather   Emden   Past weeks

Flag for Germany Past Weather in Emden, Lower Saxony, Germany — Yesterday and Last 2 Weeks

Now
47 °F

Passing clouds.


Feels Like: N/A
Forecast: 60 / 66 °F
Wind: N/A

Location: Emden-Koenigspolder

Current Time: Sep 27, 2016 at 4:08:42 AM

Latest Report: Sep 27, 2016 at 3:00 AM


Visibility: 19 mi

Pressure: 30.26 "Hg

Humidity: 96%

Dew Point: 46 °F

Location of EmdenLocation

Past Weather in Emden — Graph

°F

Emden Temperature Yesterday

Maximum temperature yesterday: 68 °F (at 4:00 PM)
Minimum temperature yesterday: 51 °F (at 10:00 PM)
Average temperature yesterday: 59 °F

High & Low Weather Summary for the Past Weeks

 TemperatureHumidityPressure
High85 °F (Sep 13, 6:00 PM)100% (Sep 12, 7:00 AM)30.28 "Hg (Sep 12, 7:00 AM)
Low44 °F (Sep 24, 6:00 AM)46% (Sep 19, 4:00 PM)29.85 "Hg (Sep 16, 1:00 AM)
Average62 °F78%30.07 "Hg
* Reported Sep 12 3:00 AM — Sep 27 3:00 AM, Emden, Weather by CustomWeather, © 2016

Note: Actual official high and low records may vary slightly from our data, if they occured in-between our weather recording intervals... More about our weather records

Advertising

Emden Weather History for the Previous 24 Hours

Scroll right to see more
 ConditionsComfort  
Time TempWeatherWind HumidityBarometerVisibility
3:00 AM
Tue, Sep 27
47 °FPassing clouds.N/A96%30.26 "Hg19 mi
1:00 AM48 °FPassing clouds.N/A98%30.26 "Hg1 mi
12:00 AM50 °FOvercast.N/A98%30.25 "Hg9 mi
10:00 PM
Mon, Sep 26
51 °FPassing clouds.1 mph98%30.26 "Hg9 mi
9:00 PM52 °FOvercast.1 mph96%30.25 "Hg11 mi
7:00 PM60 °FOvercast.3 mph76%30.23 "Hg19 mi
6:00 PM63 °FOvercast.3 mph68%30.22 "Hg22 mi
4:00 PM68 °FOvercast.2 mph53%30.22 "Hg14 mi
3:00 PM65 °FOvercast.2 mph62%30.22 "Hg19 mi
1:00 PM66 °FPassing clouds.3 mph62%30.22 "Hg17 mi
12:00 PM65 °FOvercast.2 mph68%30.22 "Hg10 mi
10:00 AM60 °FPassing clouds.2 mph80%30.20 "Hg10 mi
9:00 AM54 °FSunny.N/A95%30.19 "Hg1 mi
7:00 AM54 °FClear.2 mph98%30.17 "Hg9 mi
6:00 AM56 °FOvercast.1 mph98%30.17 "Hg9 mi
4:00 AM58 °FPassing clouds.2 mph91%30.15 "Hg14 mi
Weather by CustomWeather, © 2016

See weather overviewHow to use our weather pages